Regional Weather Roundup
Issued by NWS

Home | Current Version | Previous Version | Graphics & Text | Print | Product List | Glossary On
Versions: 1 2 3 4 5 6 7 8 9 10 11 12 13 14 15 16 17 18 19 20 21 22 23 24 25 26 27
000
ASUS45 KSLC 221210
RWRUT

UTAH REGIONAL WEATHER ROUNDUP
NATIONAL WEATHER SERVICE SALT LAKE CITY UT
600 AM MDT TUE AUG 22 2017

UTZ001>011-023>025-221300-

NORTHERN UTAH

CITY           SKY/WX    TMP DP  RH WIND       PRES   REMARKS
BRIGHAM CITY   CLEAR     59  35  39 N7        30.18R
DUGWAY         MOCLDY    66  41  40 VRB1      30.16R
HILL AFB       NOT AVBL
LOGAN          CLEAR     54  43  66 S3        30.21R
OGDEN          CLEAR     65  41  41 S9        30.16F
SALT LAKE CITY MOCLDY    73  46  38 E3        30.15R
TOOELE VALLEY  MOCLDY    66  45  45 S7        30.17R
WENDOVER       MOCLDY    66  37  34 CALM      30.15R
HEBER CITY     MOCLDY    52  45  76 CALM      30.27S
WEST JORDAN    MOCLDY    69  51  54 S5        30.19R

$$

UTZ011>015-024>027-221300-

CENTRAL/NORTHEAST UTAH

CITY           SKY/WX    TMP DP  RH WIND       PRES   REMARKS
PROVO AIRPORT  NOT AVBL
MOAB/CANYONLAN MOCLDY    67  41  38 SW3       30.18R
DELTA          CLOUDY    64  46  52 SW6       30.23R
PRICE          MOCLDY    60  40  47 SE5       30.28R
ROOSEVELT      CLEAR     57  43  58 CALM      30.26R
VERNAL         CLEAR     58  42  55 NW7       30.25R

$$

UTZ013>016-019>022-027-221300-

SOUTHERN UTAH

CITY           SKY/WX    TMP DP  RH WIND       PRES   REMARKS
BRYCE CANYON   LGT RAIN  54  50  86 CALM      30.44R
CEDAR CITY     CLOUDY    62  52  69 W8        30.28R
MILFORD        CLOUDY    64  49  57 S9        30.25R
ST GEORGE      PTSUNNY   76  54  46 CALM      30.14R
HANKSVILLE     PTCLDY    64  37  36 CALM      30.20R
BLANDING       MOCLDY    65  46  49 CALM      30.37S

$$

REGIONAL REPORTS     COLORADO/ARIZONA

CITY           SKY/WX    TMP DP  RH WIND       PRES   REMARKS
CRAIG, CO      CLOUDY    43  34  70 CALM      30.34R
GRAND JUNCTION PTCLDY    70  44  39 E10       30.21R
RIFLE, CO      CLEAR     57  40  52 CALM      30.30R
MONTROSE, CO   CLOUDY    57  45  64 S7        30.32R
CORTEZ, CO     CLOUDY    55  52  89 NE7       30.32R
COLORADO CITY  LGT RAIN  63  59  88 E17       30.28F
PAGE, AZ       CLOUDY    74  53  48 NW6       30.19F
GRAND CANYON   LGT RAIN  58  52  80 E17       30.37F
KINGMAN, AZ    CLEAR     61  54  77 SE6       30.12F
FLAGSTAFF, AZ  MOCLDY    52  51  97 CALM      30.37S

$$

REGIONAL REPORTS    NEVADA/IDAHO/WYOMING

CITY           SKY/WX    TMP DP  RH WIND       PRES   REMARKS
LAS VEGAS, NV  CLEAR     77  53  43 S5        30.03S
ELY, NY        LGT RAIN  58  49  72 SW3       30.32R
ELKO, NV       PTCLDY    63  32  31 N5        30.20S
POCATELLO, ID  CLOUDY    46  37  71 E3        30.21R
BURLEY, ID     CLEAR     48  41  76 CALM      30.16S
FORT BRIDGER,    N/A     55  33  44 W3        30.39S
EVANSTON, WY   CLOUDY    54  36  50 SE8       30.37R
ROCK SPRINGS,  CLOUDY    51  34  52 NW6       30.35R
KEMMERER, WY     N/A     43  32  65 N8        30.40R

$$




USA.gov is the U.S. government's official web portal to all federal, state and local government web resources and services.